Tracking 22081 objects as of 5-Dec-2020
HD Live streaming from Space Station
objects crossing your sky now

THOR ABLESTAR R/B

Track THOR ABLESTAR R/B now!
10-day predictions


NORAD ID: 1428
Int'l Code: 1965-048B
Perigee: 1,029.3 km
Apogee: 1,111.0 km
Inclination: 89.9 °
Period: 106.5 minutes
Semi major axis: 7441 km
RCS: 4.0527 m2 (large)
Launch date: June 24, 1965
Source: United States (US)
Launch site: AIR FORCE WESTERN TEST RANGE (AFWTR)

Note: This is a ROCKET BODY
aabbcc
Your satellite tracking list
Your tracking list is empty




NASA's NSSDC Master Catalog

Two Line Element Set (TLE):
1 01428U 65048B   20339.18724041  .00000003  00000-0 -95507-5 0  9997
2 01428  89.9185 306.3172 0054882 286.6493  83.2041 13.52517448735456
Source of the keplerian elements: AFSPC